Time,TemperatureF,DewpointF,PressureIn,WindDirection,WindDirectionDegrees,WindSpeedMPH,WindSpeedGustMPH,Humidity,HourlyPrecipIn,Conditions,Clouds,dailyrainin,SoftwareType,DateUTC
2013-04-21 00:15:00,76.1,33.3,29.79,West,270,2.2,-999.0,21,-99.99,,,0.00,Acu-Link.com,2013-04-21 07:15:00,
2013-04-21 00:30:00,76.3,33.5,29.79,WNW,292,4.7,-999.0,21,-99.99,,,0.00,Acu-Link.com,2013-04-21 07:30:00,
2013-04-21 00:45:00,76.3,33.5,29.79,NW,315,2.7,-999.0,21,-99.99,,,0.00,Acu-Link.com,2013-04-21 07:45:00,
2013-04-21 01:01:00,75.4,33.9,29.79,North,0,2.7,-999.0,22,-99.99,,,0.00,Acu-Link.com,2013-04-21 08:01:00,
2013-04-21 01:16:00,75.2,33.7,29.79,WNW,292,3.2,-999.0,22,-99.99,,,0.00,Acu-Link.com,2013-04-21 08:16:00,
2013-04-21 01:31:00,74.8,34.5,29.79,West,270,2.2,-999.0,23,-99.99,,,0.00,Acu-Link.com,2013-04-21 08:31:00,
2013-04-21 01:47:00,73.6,35.6,29.79,West,270,3.2,-999.0,25,-99.99,,,0.00,Acu-Link.com,2013-04-21 08:47:00,
2013-04-21 02:02:00,73.6,34.6,29.79,NW,315,2.7,-999.0,24,-99.99,,,0.00,Acu-Link.com,2013-04-21 09:02:00,
2013-04-21 02:17:00,73.4,33.3,29.79,WSW,247,1.7,-999.0,23,-99.99,,,0.00,Acu-Link.com,2013-04-21 09:17:00,
2013-04-21 02:32:00,71.6,35.8,29.79,SW,225,0.0,-999.0,27,-99.99,,,0.00,Acu-Link.com,2013-04-21 09:32:00,
2013-04-21 02:48:00,71.1,34.5,29.79,NW,315,5.3,-999.0,26,-99.99,,,0.00,Acu-Link.com,2013-04-21 09:48:00,
2013-04-21 03:03:00,70.9,34.3,29.79,North,0,4.2,-999.0,26,-99.99,,,0.00,Acu-Link.com,2013-04-21 10:03:00,
2013-04-21 03:18:00,71.4,35.7,29.79,WNW,292,3.2,-999.0,27,-99.99,,,0.00,Acu-Link.com,2013-04-21 10:18:00,
2013-04-21 03:33:00,71.1,35.4,29.79,WSW,247,2.7,-999.0,27,-99.99,,,0.00,Acu-Link.com,2013-04-21 10:33:00,
2013-04-21 03:48:00,70.9,36.2,29.80,West,270,2.7,-999.0,28,-99.99,,,0.00,Acu-Link.com,2013-04-21 10:48:00,
2013-04-21 04:03:00,70.7,36.0,29.80,WSW,247,2.2,-999.0,28,-99.99,,,0.00,Acu-Link.com,2013-04-21 11:03:00,
2013-04-21 04:18:00,70.0,35.4,29.80,West,270,2.7,-999.0,28,-99.99,,,0.00,Acu-Link.com,2013-04-21 11:18:00,
2013-04-21 04:34:00,69.6,35.0,29.80,NNW,337,1.7,-999.0,28,-99.99,,,0.00,Acu-Link.com,2013-04-21 11:34:00,
2013-04-21 04:49:00,69.3,34.8,29.80,SW,225,3.2,-999.0,28,-99.99,,,0.00,Acu-Link.com,2013-04-21 11:49:00,
2013-04-21 05:04:00,68.5,35.0,29.80,WNW,292,2.2,-999.0,29,-99.99,,,0.00,Acu-Link.com,2013-04-21 12:04:00,
2013-04-21 05:20:00,68.5,35.0,29.80,NW,315,5.3,-999.0,29,-99.99,,,0.00,Acu-Link.com,2013-04-21 12:20:00,
2013-04-21 05:35:00,68.9,34.4,29.81,West,270,3.7,-999.0,28,-99.99,,,0.00,Acu-Link.com,2013-04-21 12:35:00,
2013-04-21 05:50:00,68.7,34.3,29.81,SW,225,0.0,-999.0,28,-99.99,,,0.00,Acu-Link.com,2013-04-21 12:50:00,
2013-04-21 06:06:00,68.4,34.0,29.81,North,0,1.1,-999.0,28,-99.99,,,0.00,Acu-Link.com,2013-04-21 13:06:00,
2013-04-21 06:21:00,68.5,34.1,29.81,WNW,292,3.7,-999.0,28,-99.99,,,0.00,Acu-Link.com,2013-04-21 13:21:00,
2013-04-21 06:36:00,68.9,33.5,29.82,WNW,292,2.7,-999.0,27,-99.99,,,0.00,Acu-Link.com,2013-04-21 13:36:00,
2013-04-21 06:51:00,69.1,33.7,29.83,West,270,0.0,-999.0,27,-99.99,,,0.00,Acu-Link.com,2013-04-21 13:51:00,
2013-04-21 07:07:00,69.3,33.9,29.83,West,270,1.1,-999.0,27,-99.99,,,0.00,Acu-Link.com,2013-04-21 14:07:00,
2013-04-21 07:22:00,71.4,33.7,29.83,WNW,292,3.7,-999.0,25,-99.99,,,0.00,Acu-Link.com,2013-04-21 14:22:00,
2013-04-21 07:37:00,74.1,33.9,29.83,WNW,292,4.2,-999.0,23,-99.99,,,0.00,Acu-Link.com,2013-04-21 14:37:00,
2013-04-21 07:52:00,76.3,33.5,29.83,West,270,2.7,-999.0,21,-99.99,,,0.00,Acu-Link.com,2013-04-21 14:52:00,
2013-04-21 08:08:00,78.4,30.0,29.84,WSW,247,2.7,-999.0,17,-99.99,,,0.00,Acu-Link.com,2013-04-21 15:08:00,
2013-04-21 08:23:00,80.8,28.8,29.84,WNW,292,3.2,-999.0,15,-99.99,,,0.00,Acu-Link.com,2013-04-21 15:23:00,
2013-04-21 08:38:00,82.4,28.4,29.83,SSW,202,2.2,-999.0,14,-99.99,,,0.00,Acu-Link.com,2013-04-21 15:38:00,
2013-04-21 08:54:00,81.7,27.9,29.83,NNW,337,3.7,-999.0,14,-99.99,,,0.00,Acu-Link.com,2013-04-21 15:54:00,
2013-04-21 09:09:00,83.3,27.3,29.83,SW,225,2.7,-999.0,13,-99.99,,,0.00,Acu-Link.com,2013-04-21 16:09:00,
2013-04-21 09:24:00,85.1,24.7,29.83,West,270,0.0,-999.0,11,-99.99,,,0.00,Acu-Link.com,2013-04-21 16:24:00,
2013-04-21 09:39:00,86.9,28.2,29.82,South,180,0.0,-999.0,12,-99.99,,,0.00,Acu-Link.com,2013-04-21 16:39:00,
2013-04-21 09:54:00,86.7,33.5,29.83,East,90,0.0,-999.0,15,-99.99,,,0.00,Acu-Link.com,2013-04-21 16:54:00,
2013-04-21 10:10:00,88.7,29.6,29.82,SSE,157,2.7,-999.0,12,-99.99,,,0.00,Acu-Link.com,2013-04-21 17:10:00,
2013-04-21 10:25:00,89.4,28.0,29.83,NNE,22,0.0,-999.0,11,-99.99,,,0.00,Acu-Link.com,2013-04-21 17:25:00,
2013-04-21 10:40:00,91.0,29.2,29.83,SSW,202,1.7,-999.0,11,-99.99,,,0.00,Acu-Link.com,2013-04-21 17:40:00,
2013-04-21 10:56:00,90.7,26.6,29.83,South,180,4.7,-999.0,10,-99.99,,,0.00,Acu-Link.com,2013-04-21 17:56:00,
2013-04-21 11:11:00,91.0,29.2,29.82,SSE,157,2.2,-999.0,11,-99.99,,,0.00,Acu-Link.com,2013-04-21 18:11:00,
2013-04-21 11:26:00,92.1,27.7,29.82,South,180,2.7,-999.0,10,-99.99,,,0.00,Acu-Link.com,2013-04-21 18:26:00,
2013-04-21 11:42:00,92.1,25.2,29.81,SSE,157,5.3,-999.0,9,-99.99,,,0.00,Acu-Link.com,2013-04-21 18:42:00,
2013-04-21 11:57:00,92.3,27.8,29.81,South,180,1.7,-999.0,10,-99.99,,,0.00,Acu-Link.com,2013-04-21 18:57:00,
2013-04-21 12:12:00,93.0,28.4,29.80,SSW,202,1.7,-999.0,10,-99.99,,,0.00,Acu-Link.com,2013-04-21 19:12:00,
2013-04-21 12:27:00,93.2,26.0,29.80,South,180,2.7,-999.0,9,-99.99,,,0.00,Acu-Link.com,2013-04-21 19:27:00,
2013-04-21 12:43:00,93.9,23.7,29.80,SW,225,2.2,-999.0,8,-99.99,,,0.00,Acu-Link.com,2013-04-21 19:43:00,
2013-04-21 12:58:00,94.3,20.8,29.78,SE,135,3.7,-999.0,7,-99.99,,,0.00,Acu-Link.com,2013-04-21 19:58:00,
2013-04-21 13:13:00,94.5,24.1,29.78,SSW,202,5.3,-999.0,8,-99.99,,,0.00,Acu-Link.com,2013-04-21 20:13:00,
2013-04-21 13:28:00,95.0,27.3,29.77,South,180,1.7,-999.0,9,-99.99,,,0.00,Acu-Link.com,2013-04-21 20:28:00,
2013-04-21 13:44:00,95.0,27.3,29.77,SSE,157,3.2,-999.0,9,-99.99,,,0.00,Acu-Link.com,2013-04-21 20:44:00,
2013-04-21 13:59:00,94.3,26.8,29.76,WNW,292,3.2,-999.0,9,-99.99,,,0.00,Acu-Link.com,2013-04-21 20:59:00,
2013-04-21 14:14:00,95.2,27.5,29.75,South,180,2.7,-999.0,9,-99.99,,,0.00,Acu-Link.com,2013-04-21 21:14:00,
2013-04-21 14:29:00,95.7,25.0,29.75,South,180,3.2,-999.0,8,-99.99,,,0.00,Acu-Link.com,2013-04-21 21:29:00,
2013-04-21 14:44:00,95.7,25.0,29.74,South,180,3.7,-999.0,8,-99.99,,,0.00,Acu-Link.com,2013-04-21 21:44:00,
2013-04-21 14:59:00,96.1,25.3,29.74,South,180,3.2,-999.0,8,-99.99,,,0.00,Acu-Link.com,2013-04-21 21:59:00,
2013-04-21 15:15:00,95.4,27.6,29.73,SE,135,4.2,-999.0,9,-99.99,,,0.00,Acu-Link.com,2013-04-21 22:15:00,
2013-04-21 15:30:00,96.1,28.1,29.73,ESE,112,3.7,-999.0,9,-99.99,,,0.00,Acu-Link.com,2013-04-21 22:30:00,
2013-04-21 15:45:00,95.5,27.7,29.73,South,180,3.7,-999.0,9,-99.99,,,0.00,Acu-Link.com,2013-04-21 22:45:00,
2013-04-21 16:00:00,95.5,27.7,29.71,SSE,157,3.2,-999.0,9,-99.99,,,0.00,Acu-Link.com,2013-04-21 23:00:00,
2013-04-21 16:16:00,95.5,27.7,29.72,South,180,2.7,-999.0,9,-99.99,,,0.00,Acu-Link.com,2013-04-21 23:16:00,
2013-04-21 16:31:00,95.0,27.3,29.71,South,180,2.7,-999.0,9,-99.99,,,0.00,Acu-Link.com,2013-04-21 23:31:00,
2013-04-21 16:46:00,94.8,24.3,29.71,ENE,67,2.2,-999.0,8,-99.99,,,0.00,Acu-Link.com,2013-04-21 23:46:00,
2013-04-21 17:02:00,95.4,27.6,29.70,South,180,3.7,-999.0,9,-99.99,,,0.00,Acu-Link.com,2013-04-22 00:02:00,
2013-04-21 17:17:00,94.3,24.0,29.69,SW,225,2.7,-999.0,8,-99.99,,,0.00,Acu-Link.com,2013-04-22 00:17:00,
2013-04-21 17:32:00,95.2,24.6,29.69,South,180,3.2,-999.0,8,-99.99,,,0.00,Acu-Link.com,2013-04-22 00:32:00,
2013-04-21 17:48:00,99.5,24.6,29.69,SSE,157,2.7,-999.0,7,-99.99,,,0.00,Acu-Link.com,2013-04-22 00:48:00,
2013-04-21 18:03:00,98.6,20.3,29.70,NE,45,1.7,-999.0,6,-99.99,,,0.00,Acu-Link.com,2013-04-22 01:03:00,
2013-04-21 18:18:00,97.2,19.3,29.69,South,180,2.2,-999.0,6,-99.99,,,0.00,Acu-Link.com,2013-04-22 01:18:00,
2013-04-21 18:33:00,95.2,21.5,29.69,SSE,157,1.7,-999.0,7,-99.99,,,0.00,Acu-Link.com,2013-04-22 01:33:00,
2013-04-21 18:48:00,93.4,26.1,29.69,South,180,1.7,-999.0,9,-99.99,,,0.00,Acu-Link.com,2013-04-22 01:48:00,
2013-04-21 19:04:00,90.3,23.8,29.69,South,180,2.7,-999.0,9,-99.99,,,0.00,Acu-Link.com,2013-04-22 02:04:00,
2013-04-21 19:19:00,88.7,27.4,29.70,SE,135,0.0,-999.0,11,-99.99,,,0.00,Acu-Link.com,2013-04-22 02:19:00,
2013-04-21 19:34:00,86.4,27.8,29.71,SSE,157,1.1,-999.0,12,-99.99,,,0.00,Acu-Link.com,2013-04-22 02:34:00,
2013-04-21 19:49:00,85.3,28.9,29.71,WNW,292,0.0,-999.0,13,-99.99,,,0.00,Acu-Link.com,2013-04-22 02:49:00,
2013-04-21 20:05:00,85.1,22.4,29.72,WSW,247,1.1,-999.0,10,-99.99,,,0.00,Acu-Link.com,2013-04-22 03:05:00,
2013-04-21 20:20:00,84.0,27.9,29.73,WNW,292,3.2,-999.0,13,-99.99,,,0.00,Acu-Link.com,2013-04-22 03:20:00,
2013-04-21 20:35:00,84.2,28.0,29.73,NW,315,3.2,-999.0,13,-99.99,,,0.00,Acu-Link.com,2013-04-22 03:35:00,
2013-04-21 20:50:00,83.7,29.4,29.74,NW,315,5.3,-999.0,14,-99.99,,,0.00,Acu-Link.com,2013-04-22 03:50:00,
2013-04-21 21:05:00,83.3,29.1,29.75,NNW,337,10.9,-999.0,14,-99.99,,,0.00,Acu-Link.com,2013-04-22 04:05:00,
2013-04-21 21:21:00,82.6,28.6,29.75,West,270,7.8,-999.0,14,-99.99,,,0.00,Acu-Link.com,2013-04-22 04:21:00,
2013-04-21 21:36:00,82.0,28.1,29.75,West,270,10.4,-999.0,14,-99.99,,,0.00,Acu-Link.com,2013-04-22 04:36:00,
2013-04-21 21:51:00,81.3,27.5,29.76,West,270,6.3,-999.0,14,-99.99,,,0.00,Acu-Link.com,2013-04-22 04:51:00,
2013-04-21 22:06:00,80.6,27.0,29.75,West,270,5.8,-999.0,14,-99.99,,,0.00,Acu-Link.com,2013-04-22 05:06:00,
2013-04-21 22:21:00,80.1,26.6,29.76,WSW,247,10.4,-999.0,14,-99.99,,,0.00,Acu-Link.com,2013-04-22 05:21:00,
2013-04-21 22:36:00,79.2,27.6,29.76,West,270,8.3,-999.0,15,-99.99,,,0.00,Acu-Link.com,2013-04-22 05:36:00,
2013-04-21 22:52:00,78.8,27.2,29.76,West,270,8.3,-999.0,15,-99.99,,,0.00,Acu-Link.com,2013-04-22 05:52:00,
2013-04-21 23:07:00,78.3,28.4,29.76,NW,315,5.3,-999.0,16,-99.99,,,0.00,Acu-Link.com,2013-04-22 06:07:00,
2013-04-21 23:22:00,77.7,27.9,29.76,West,270,4.2,-999.0,16,-99.99,,,0.00,Acu-Link.com,2013-04-22 06:22:00,
2013-04-21 23:38:00,77.5,27.8,29.76,NW,315,7.3,-999.0,16,-99.99,,,0.00,Acu-Link.com,2013-04-22 06:38:00,
2013-04-21 23:53:00,76.8,28.7,29.77,West,270,6.8,-999.0,17,-99.99,,,0.00,Acu-Link.com,2013-04-22 06:53:00,